weather.gov     
National Weather Service

Regional Weather Roundup
NWS Homepage
This page is being discontinued on March 12, 2014.
The same data is available at this site. Please update your bookmarks.
Thank you, and we apologize for the inconvenience.
Please send an email to SR-SRH.Webmaster@noaa.gov with any concerns.


Current Version
Previous Version:    01  02  03  04  05  06  07  08  09  10  11  12  13  14  15  16  17  18  19  20  21  22  23  24  25  26  27  28  29  30  
   31  32  33  34  35  36  37  38  39  40  41  42  43  44  45  46  47  48  49  50  51  52  53  54  55  56  57  58  59  60  
[Printable]
126
ASUS46 KLOX 291412
RWRCA

SOUTHERN CALIFORNIA WEATHER ROUNDUP
NATIONAL WEATHER SERVICE OXNARD CALIFORNIA
600 AM PST THU JAN 29 2015

NOTE: "FAIR" INDICATES FEW OR NO CLOUDS BELOW 12,000 FEET WITH NO
SIGNIFICANT WEATHER AND/OR OBSTRUCTIONS TO VISIBILITY.

  -  STATIONS PRECEEDED BY AN ASTERISK (*) ARE NOT NWS OR FAA
     STATIONS AND ARE NOT SUBJECT TO NWS AND FAA QUALITY CONTROL.

CAZ041-042-087-291500-
LA AND ORANGE COUNTY COASTAL AREAS


CITY           SKY/WX    TMP DP  RH WIND       PRES   REMARKS
L.A. DOWNTOWN  CLOUDY    61  46  57 E3        30.02R
L.A. AIRPORT   CLOUDY    65  43  44 VRB6      30.02R
LONG BEACH     CLOUDY    60  48  64 NW6       30.02R

CITY           SKY/WX    TMP DP  RH WIND       PRES   REMARKS
AVALON           N/A     59 N/A N/A MISG        N/A
FULLERTON      CLOUDY    64  42  44 CALM      30.01R
HAWTHORNE      CLOUDY    63  46  54 CALM      30.03R
*LEO CARRILLO    N/A     69  40  35 NE7         N/A
*LOS ALAMITOS  CLOUDY    55  51  85 N1        30.01S
*REDONDO BEACH   N/A     57  48  71 CALM      30.03R
SANTA ANA      CLOUDY    62  50  64 CALM      30.01R
STA MONICA APT CLOUDY    65  41  41 W3        30.03R
*STA MON PIER    N/A     66  49  55 W2        30.02R
*UCLA            N/A     66  39  37 NW12      30.00R

$$

CAZ547-548-048-291500-
LA COUNTY VALLEYS AND INLAND EMPIRE


CITY           SKY/WX    TMP DP  RH WIND       PRES   REMARKS
BURBANK        CLOUDY    60  44  55 CALM      30.03R
VAN NUYS       CLOUDY    65  42  43 N15G22    30.03R

CITY           SKY/WX    TMP DP  RH WIND       PRES   REMARKS
CORONA AIRPORT CLOUDY    65  42  43 SE5       30.04S
CHINO          CLOUDY    54  50  86 NW3       30.04S FOG
*CLAREMONT       N/A     55  40  58 CALM        N/A
MARCH AFB      CLOUDY    55  46  71 NW5       30.05S
*NORTHRIDGE      N/A     64  37  36 N5G14       N/A
ONTARIO        CLOUDY    57  44  62 N5        30.04R
*PASADENA        N/A     61  45  55 CALM        N/A
RIVERSIDE      CLOUDY    60  43  53 E6        30.04S
SAN BERNARDINO NOT AVBL
*SAN RAFAEL HI   N/A     63  33  32 N5          N/A
*SAUGUS          N/A     58  42  56 N3          N/A
*WHITEMAN AP   NOT AVBL
*WHITTIER HILL   N/A     61  42  50 NE3         N/A
*WOODLAND HILL   N/A     63  43  48 SW2         N/A

$$

CAZ054-055-291500-
LA AND SAN BERNARDINO COUNTY MOUNTAINS


CITY           SKY/WX    TMP DP  RH WIND       PRES   REMARKS
*ACTON           N/A     53  42  65 N13         N/A
*BIG BEAR AIRP CLOUDY    34  30  86 CALM      30.22R
*BIG PINES       N/A     38  30  72 E2          N/A
MT WILSON NWS    N/A     48  21  34 NE3         N/A
SANDBERG       CLOUDY    50  36  58 E17G24    30.17S

$$

CAZ028-029-059-060-099-291500-
ANTELOPE VALLEY AND SURROUNDING AREAS


CITY           SKY/WX    TMP DP  RH WIND       PRES   REMARKS
LANCASTER      CLOUDY    46  44  93 CALM      30.16S
PALMDALE       CLOUDY    47  45  93 CALM      30.16S
*POPPY PARK      N/A     48  44  85 CALM        N/A

CITY           SKY/WX    TMP DP  RH WIND       PRES   REMARKS
29 PALMS       CLOUDY    52  44  74 NW5       30.20R
BARSTOW/DAGGET CLOUDY    51  45  79 W8        30.14S
BISHOP         MOCLDY    35  27  72 NW7       30.23S WCI  29
CHINA LAKE     CLOUDY    49  47  93 CALM      30.16S
EDWARDS AFB    MOCLDY    47  47 100 S2        30.14S
MOJAVE         FAIR      50  45  81 CALM      30.17R
NEEDLES        CLOUDY    62  45  53 N7        30.08R
VICTORVILLE    CLOUDY    46  43  87 CALM      30.16S

$$

CAZ039-040-291500-
VENTURA AND SANTA BARBARA COUNTY COAST


CITY           SKY/WX    TMP DP  RH WIND       PRES   REMARKS
CAMARILLO      CLOUDY    60  46  59 W3        30.03S
NWS OXNARD       N/A     59  48  65 CALM      30.02S
OXNARD AIRPORT CLOUDY    59  51  75 CALM      30.03S
*POINT MUGU    CLOUDY    62  47  57 N6        30.03S
SBA APT/GOLETA CLOUDY    55  50  83 NE3       30.02F
*SANTA BARBARA   N/A     58  49  72 CALM      30.10F
*VENTURA         N/A     60  43  52 CALM      30.08S

$$

CAZ044-045-291500-
VENTURA COUNTY VALLEYS


CITY           SKY/WX    TMP DP  RH WIND       PRES   REMARKS
*SIMI VALLEY     N/A     64  43  46 NE9       30.00S
*OJAI            N/A     52  47  85 CALM      30.01S

$$

CAZ053-291500-
VENTURA COUNTY MOUNTAINS


CITY           SKY/WX    TMP DP  RH WIND       PRES   REMARKS
*LOCKWOOD VLY    N/A     43  34  70 MISG        N/A
*ROSE VALLEY     N/A     46  43  87 MISG        N/A

$$

CAZ034-035-036-291500-
CENTRAL COAST AND SANTA YNEZ VALLEY


CITY           SKY/WX    TMP DP  RH WIND       PRES   REMARKS
SAN LUIS OBISP CLEAR     45  42  89 E5        30.07S
SANTA MARIA    PTCLDY    50  45  83 CALM      30.07S

CITY           SKY/WX    TMP DP  RH WIND       PRES   REMARKS
*CAL POLY SLO    N/A     57  48  72 N10         N/A
*LOMPOC        MOCLDY    48  43  81 E6        30.07R
*PISMO BEACH     N/A     50  46  85 NE1       30.07S
*SANTA YNEZ    FAIR      50  46  87 CALM      30.07S

$$

CAZ037-038-051-291500-
SAN LUIS OBISPO COUNTY INTERIOR AND CUYAMA VALLEY


CITY           SKY/WX    TMP DP  RH WIND       PRES   REMARKS
*CUYAMA          N/A     47  45  93 CALM      30.10S
PASO ROBLES    FOG       40  38  93 CALM      30.12S VSB 1/2

$$

CAZ032-033-061-291500-
SOUTHERN DESERTS


CITY           SKY/WX    TMP DP  RH WIND       PRES   REMARKS
BLYTHE         CLOUDY    57  48  72 NW10      30.05S
IMPERIAL       CLOUDY    58  51  78 W3        30.04R
PALM SPRINGS   CLOUDY    64  40  41 W7        30.08R
THERMAL        CLOUDY    56  48  74 CALM      30.04R

$$

ELSEWHERE ACROSS THE WESTERN UNITED STATES AND MEXICO


CITY           SKY/WX    TMP DP  RH WIND       PRES   REMARKS
DENVER, CO     CLOUDY    36  27  69 N8        30.47R WCI  30
GRAND CANYON,  CLOUDY    41  28  60 E13G24    30.27R WCI  34
HONOLULU, HI   PTCLDY    75  66  73 S8        29.89S
KAHULUI, MAUI  CLEAR     63  59  88 SE7       29.90F
LAKE TAHOE, CA CLEAR     25  20  81 SW3       30.24F
LAS VEGAS, NV  CLOUDY    55  43  63 S8        30.13R
MAMMOTH LAKES, FAIR      25  23  93 CALM      30.28S
MEXICO CITY, M CLEAR     45  32  61 E5        30.37R
PHOENIX, AZ    CLOUDY    59  51  75 CALM      30.04R
PORTLAND, OR   CLOUDY    43  41  93 CALM      30.33S
RENO, NV       PTCLDY    30  27  88 CALM      30.28S
SALT LAKE CITY PTCLDY    29  27  92 CALM      30.36S
SAN DIEGO, CA  CLOUDY    61  48  62 CALM      30.02R
SAN FRANCISCO, CLOUDY    53  53 100 CALM      30.14S
SAN JOSE, CA   MOCLDY    45  41  87 CALM      30.14S
SEATTLE, WA    MOCLDY    41  38  89 N5        30.36R
TIJUANA, MEX   MOCLDY    66  36  32 E8        30.03R

$$

STATION/POSITION TIME  TEMP    WIND        PRES    VSBY  WAVE
                       AIR SEA DIR/SP/G                  HT/PER
                 (UTC) (F)     (DEG/KT/KT) (MB)    (MI)  (FT/S)
POINT ARGUELLO B NOT AVBL
WEST SANTA BARBA 1400   61 60  320/  8/  8 1016.5S         4/11
POINT CONCEPTION NOT AVBL
EAST SANTA BARBA NOT AVBL
SANTA MONICA BAY 1400   63 62  360/  4/  4 1016.7F         3/12




U.S. Dept. of Commerce
NOAA National Weather Service
1325 East West Highway
Silver Spring, MD 20910
E-mail: w-nws.webmaster@noaa.gov
Page last modified: May 16, 2007
NATIONAL WEATHER SERVICE: for Safety, for Work, for Fun - FOR LIFE